Location: Colorado Springs
(38.8340°N, 104.8210°W)
Time: 15:41:22
(UTC-07:00)

Tiangong 2 - Pass Details

Date: 09 October 2017
Orbit: 386 x 390 km, 42.8° (Epoch: 16 December)

Event Time Altitude Azimuth Distance (km) Brightness Sun altitude
Exits shadow 05:59:43 23° 243° (WSW) 890 2.4 -13.1°
Maximum altitude 06:01:35 81° 159° (SSE) 399 1.1 -12.8°
Drops below altitude 10° 06:04:48 10° 71° (ENE) 1,426 5.2 -12.2°
Sets 06:06:53 0° 70° (ENE) 2,285 6.5 -11.7°
